Location: Camaret
(48.2753°N, 4.5961°W)
Time: 06:34:53
(UTC+00:00)

X-37B - Pass Details

Date: 23 January 2021
Orbit: 383 x 391 km, 45.0° (Epoch: 27 February)

Event Time Altitude Azimuth Distance (km) Brightness Sun altitude
Rises 17:44:52 0° 233° (SW) 2,265 6.2 -7.0°
Reaches altitude 10° 17:47:06 10° 220° (SW) 1,414 4.5 -7.4°
Maximum altitude 17:49:51 27° 161° (SSE) 788 2.1 -7.8°
Drops below altitude 10° 17:52:38 10° 101° (E) 1,422 2.9 -8.2°
Enters shadow 17:52:53 - 99° (E) 1,512 3.0 -8.3°
